Regional Weather Roundup
Issued by NWS

Home | Current Version | Previous Version | Text Only | Print | Product List | Glossary Off
Versions: 1 2 3 4 5 6 7 8 9 10 11 12 13 14 15 16 17 18 19 20 21 22 23 24 25 26 27 28 29 30 31 32 33 34 35 36 37 38 39 40 41 42 43 44 45 46 47 48 49 50

000
ASUS43 KFSD 080402
RWRSD

WEATHER ROUNDUP FOR SOUTH DAKOTA
NATIONAL WEATHER SERVICE SIOUX FALLS SD
1000 PM CST SUN FEB 07 2016

NOTE: "FAIR" INDICATES FEW OR NO CLOUDS BELOW 12,000 FEET WITH NO
SIGNIFICANT WEATHER AND/OR OBSTRUCTIONS TO VISIBILITY.


SDZ001>005-009-010-012>017-080500-
NORTHWEST AND NORTH CENTRAL SOUTH DAKOTA

CITY           SKY/WX    TMP DP  RH WIND       PRES   REMARKS
BUFFALO          N/A     29  14  53 NW29G38   30.22S WCI  14
FAITH            N/A     31  15  52 NW35G45   30.20R WCI  15
MOBRIDGE       CLOUDY    35  18  49 NW33G51   30.08R WCI  21
$$

SDZ012>016-024>037-041>051-057-063-072>074-080500-
SOUTHWEST AND SOUTH CENTRAL SOUTH DAKOTA

CITY           SKY/WX    TMP DP  RH WIND       PRES   REMARKS
RAPID CTY ARPT CLEAR     32   9  38 NW35G44   30.27R WCI  17
PIERRE         MOCLDY    34  17  50 NW26G35   30.14S WCI  21
CUSTER         CLEAR     22   2  42 NW22G39   30.24R WCI   6
ELLSWORTH AFB  CLEAR     31  10  40 NW31G41   30.26R WCI  16
PHILIP         CLEAR     32  17  54 NW25G37   30.23R WCI  19
PINE RIDGE     CLEAR     28   8  43 NW12      30.29R WCI  18
WINNER         FAIR      32  17  54 NW24      30.15S WCI  19
$$

SDZ004>011-016>023-039-040-080500-
NORTHEAST SOUTH DAKOTA

CITY           SKY/WX    TMP DP  RH WIND       PRES   REMARKS
ABERDEEN       CLOUDY    29  18  63 N21G49    30.05R WCI  16
WATERTOWN      CLOUDY    21  13  71 N25G35    29.94R WCI   4
BROOKINGS      FLURRIES  21  15  78 N31G38    29.91S WCI   2
SISSETON         N/A     19  15  84 N31G40    29.97R WCI   0
$$

SDZ017-020-022-023-036>040-048>070-080500-
SOUTHEAST SOUTH DAKOTA

CITY           SKY/WX    TMP DP  RH WIND       PRES   REMARKS
SIOUX FALLS    LGT SNOW  24  19  81 N22G32    29.97S BLWGSNOWWCI   9
HURON          CLEAR     28  19  69 N25G38    30.03R WCI  13
MITCHELL       MIX PCPN  31  21  66 NW24G33   30.04F WCI  17
YANKTON        CLOUDY    30  21  69 NW17G23   30.03R WCI  18
$$

ABBREVIATIONS USED IN REMARKS
   TC - TEMPERATURE IN CELSIUS
  WCI - WIND CHILL INDEX
   HX - HEAT INDEX
  VSB - VISIBILITY




USA.gov is the U.S. government's official web portal to all federal, state and local government web resources and services.